Hourly Data Report for October 29, 2014

All times are specified in Local Standard Time (LST). Add 1 hour to adjust for Daylight Saving Time where and when it is observed.

POND INLET A
NUNAVUT

72°41'22.000" N
77°58'08.000" W
61.60 m
2403206
71095
YIO

Download Data

Hourly Data (October 2014)
Hourly Data Report for October 29, 2014
Temp Definition
°C
Dew Point Temp Definition
°C
Rel Hum Definition
%
Wind Dir Definition
10's deg

Wind Spd Definition
km/h
Visibility Definition
km
Stn Press Definition
kPa
Hmdx Definition


Wind Chill Definition


Weather Definition


TIME
00:00 Legend Double Dagger -8.2 -9.4 91 16 13 16.1 99.98   -14 Snow
01:00 Legend Double Dagger -8.2 -9.3 92 18 9 8.1 99.95   -13 Snow
02:00 Legend Double Dagger -8.1 -9.0 93 19 9 8.1 99.93   -13 Snow
03:00 Legend Double Dagger -7.9 -8.8 93 18 9 3.2 99.90   -12 Snow
04:00 Legend Double Dagger -8.0 -8.9 93 18 11 4.0 99.87   -13 Snow
05:00 Legend Double Dagger -7.8 -8.7 93 19 11 4.8 99.85   -13 Snow
06:00 Legend Double Dagger -7.3 -8.2 93 18 11 2.4 99.84   -12 Snow
07:00 Legend Double Dagger -7.3 -8.2 93 18 11 4.8 99.83   -12 Snow
08:00 Legend Double Dagger -7.2 -8.1 93 17 11 2.0 99.81   -12 Snow
09:00 Legend Double Dagger -7.7 -8.7 93 18 8 3.6 99.80   -12 Snow
10:00 Legend Double Dagger -7.4 -8.5 92 17 8 3.6 99.79   -11 Snow
11:00 Legend Double Dagger -7.0 -8.1 92 19 8 4.0 99.79   -11 Snow
12:00 Legend Double Dagger -7.0 -8.0 93 17 11 1.2 99.80   -12 Snow
13:00 Legend Double Dagger -6.7 -7.8 92 19 11 2.4 99.83   -12 Snow
14:00 Legend Double Dagger -7.1 -8.1 93 18 13 2.8 99.87   -13 Snow
15:00 Legend Double Dagger -7.1 -8.1 93 19 11 4.8 99.90   -12 Snow
16:00 Legend Double Dagger -7.1 -8.1 93 18 11 3.2 99.93   -12 Snow
17:00 Legend Double Dagger -7.6 -8.5 93 18 9 4.8 99.97   -12 Snow
18:00 Legend Double Dagger -7.2 -8.3 92 20 4 16.1 100.01   -9 Snow
19:00 Legend Double Dagger -7.4 -8.2 94 26 5 14.5 100.02   -10 Snow
20:00 Legend Double Dagger -7.7 -8.5 94 27 5 16.1 100.04   -10 Snow
21:00 Legend Double Dagger -7.7 -8.5 94 27 9 16.1 100.07   -12 Snow
22:00 Legend Double Dagger -7.6 -8.5 93 26 15 16.1 100.10   -14 LegendNANA
23:00 Legend Double Dagger -7.5 -8.6 92 23 18 16.1 100.11   -14 LegendNANA

Notes on Data Quality.

Legend

  • E = Estimated
  • M = Missing
  • NA = Not Available
  • ‡ = Partner data that is not subject to review by the National Climate Archives
Date modified: